Location: Zagreb
(45.8000°N, 16.0000°E)
Time: 12:08:52
(UTC+01:00)

Vanguard 1 Rocket - Pass Details

Date: 09 October 2020
Orbit: 656 x 4221 km, 34.3° (Epoch: 28 October)

Event Time Altitude Azimuth Distance (km) Brightness Sun altitude
Rises 19:40:54 0° 266° (W) 4,826 12.9 -14.8°
Reaches altitude 10° 19:43:37 10° 260° (W) 4,189 12.0 -15.3°
Maximum altitude 19:55:06 48° 191° (S) 3,370 10.2 -17.3°
Enters shadow 20:12:20 15° 129° (SE) 6,466 11.2 -20.2°
Drops below altitude 10° 20:15:27 10° 127° (SE) 7,100 - -20.8°
Sets 20:21:56 0° 122° (ESE) 8,365 - -21.9°
